Location: Newark
(7.0858°N, 171.3717°E)
Time: 20:48:05
(UTC+00:00)

Tiros 1 - Pass Details

Date: 30 November 2020
Orbit: 630 x 663 km, 48.4° (Epoch: 18 January)

Event Time Altitude Azimuth Distance (km) Brightness Sun altitude
Rises 11:07:33 0° 334° (NNW) 2,936 - -66.6°
Reaches altitude 10° 11:10:02 10° 343° (NNW) 2,022 - -67.0°
Maximum altitude 11:14:18 36° 49° (NE) 1,009 - -67.8°
Drops below altitude 10° 11:18:33 10° 116° (ESE) 2,008 - -68.6°
Sets 11:21:00 0° 125° (SE) 2,912 - -69.0°
